EW1948 Weather Reports


time (UTC)temp
C
wind
direction
speed
KPH
gust
KPH
rain 1hr
cm
rain 24hr
cm
rain mn
cm
humidity
%
barometer
mb
20260505100518 17 23 8.0 14.5 0.00 0.79 0.00 71 1006.9
20260505095517 17 90 1.6 8.0 0.00 0.79 0.00 69 1006.6
20260505094516 18 0.0 0.0 0.00 0.79 0.00 67 1006.0
20260505093516 18 90 1.6 3.2 0.00 0.79 0.00 65 1006.0
20260505092517 18 113 1.6 4.8 0.00 0.79 0.00 65 1006.1
20260505091538 18 23 1.6 4.8 0.00 0.79 0.00 65 1006.3
20260505090537 18 68 1.6 4.8 0.00 0.79 0.00 65 1006.4
20260505085517 18 90 1.6 6.4 0.00 0.79 0.00 64 1006.3
20260505084516 18 338 1.6 4.8 0.00 0.79 0.00 64 1006.3
20260505083517 19 113 1.6 4.8 0.00 0.79 0.00 63 1006.3
20260505082536 20 0.0 4.8 0.00 0.79 0.00 64 1006.2
20260505081516 20 338 1.6 4.8 0.00 0.79 0.00 63 1006.5
20260505080516 20 0 1.6 4.8 0.00 0.79 0.00 62 1006.7
20260505075516 20 158 6.4 22.5 0.00 0.79 0.00 63 1006.4
20260505074516 19 203 3.2 9.7 0.00 0.79 0.00 65 1006.9
20260505073516 19 338 1.6 4.8 0.00 0.79 0.00 64 1007.0
20260505072537 19 0 3.2 8.0 0.00 0.79 0.00 64 1006.8
20260505071516 20 338 4.8 11.3 0.00 0.79 0.00 66 1006.9
20260505070516 20 180 3.2 6.4 0.00 0.79 0.00 65 1006.0
20260505065516 20 180 4.8 11.3 0.00 0.79 0.00 64 1006.0
20260505064516 20 180 3.2 8.0 0.00 0.79 0.00 64 1006.2
20260505063516 20 203 1.6 4.8 0.00 0.79 0.00 63 1006.1
20260505062516 20 203 4.8 14.5 0.00 0.79 0.00 63 1006.0
20260505061516 20 158 4.8 14.5 0.00 0.79 0.00 63 1005.8
20260505060536 20 180 4.8 8.0 0.00 0.79 0.00 62 1005.7
20260505055516 20 180 4.8 12.9 0.00 0.79 0.00 62 1005.6
20260505054538 20 158 4.8 12.9 0.00 0.79 0.00 62 1005.4
20260505053516 20 158 4.8 14.5 0.00 0.79 0.00 61 1005.0
20260505052516 20 180 4.8 16.1 0.00 0.79 0.00 61 1004.9
20260505051516 21 180 4.8 17.7 0.00 0.79 0.00 61 1004.9
20260505050516 21 180 6.4 16.1 0.00 0.79 0.00 61 1004.8
20260505041517 21 180 8.0 17.7 0.00 0.79 0.79 59 1004.9
20260505040538 21 180 6.4 16.1 0.00 0.79 0.79 59 1005.1
20260505035516 21 203 6.4 14.5 0.00 0.79 0.79 58 1005.3
20260505034517 21 180 6.4 16.1 0.00 0.79 0.79 58 1005.4
20260505033516 21 180 4.8 16.1 0.00 0.79 0.79 58 1005.4
20260505032536 21 180 6.4 17.7 0.00 0.79 0.79 57 1005.4
20260505031518 21 180 4.8 11.3 0.00 0.79 0.79 58 1005.3
20260505030516 22 180 4.8 14.5 0.00 0.79 0.79 57 1005.2
20260505025618 22 225 4.8 12.9 0.00 0.79 0.79 57 1005.1
20260505024516 22 180 4.8 11.3 0.00 0.79 0.79 56 1004.9
20260505023517 22 180 4.8 12.9 0.00 0.79 0.79 56 1004.7
20260505022516 22 158 4.8 11.3 0.00 0.79 0.79 55 1004.5
20260505021516 22 180 3.2 8.0 0.00 0.79 0.79 54 1004.3
20260505020516 23 180 6.4 16.1 0.00 0.79 0.79 53 1004.1
20260505015536 23 180 6.4 16.1 0.00 0.79 0.79 53 1003.9
20260505014516 23 180 6.4 11.3 0.00 0.79 0.79 52 1003.9
20260505013516 23 158 4.8 9.7 0.00 0.79 0.79 52 1003.7
20260505012536 23 158 4.8 14.5 0.00 0.79 0.79 52 1003.7
20260505011516 23 180 4.8 11.3 0.00 0.79 0.79 52 1003.7
20260505010516 23 180 4.8 11.3 0.00 0.79 0.79 52 1003.5
20260505005517 23 158 4.8 12.9 0.00 0.79 0.79 51 1003.4
20260505004516 24 180 4.8 11.3 0.00 0.79 0.79 50 1003.2
20260505003516 24 180 4.8 9.7 0.00 0.79 0.79 50 1003.0
20260505002516 25 203 4.8 14.5 0.00 0.79 0.79 49 1003.0
20260505001516 25 248 4.8 11.3 0.00 0.79 0.79 49 1003.0
20260505000517 25 180 6.4 16.1 0.00 0.79 0.79 49 1002.9
20260504235536 25 203 4.8 12.9 0.00 0.79 0.79 48 1003.0
20260504234516 26 225 4.8 11.3 0.00 0.79 0.79 48 1002.9
20260504233516 26 203 9.7 22.5 0.00 0.79 0.79 46 1003.0
20260504232516 26 180 8.0 17.7 0.00 0.79 0.79 46 1003.2
20260504231518 26 180 6.4 16.1 0.00 0.79 0.79 47 1003.3
20260504230516 26 180 6.4 17.7 0.00 0.79 0.79 46 1003.4
20260504225516 26 180 6.4 12.9 0.00 0.79 0.79 47 1003.6
20260504224516 26 158 8.0 17.7 0.00 0.79 0.79 48 1003.7
20260504223516 26 180 9.7 19.3 0.00 0.79 0.79 49 1003.7
20260504222516 26 135 6.4 16.1 0.00 0.79 0.79 51 1003.8
20260504221516 26 225 4.8 16.1 0.00 0.79 0.79 54 1003.6
20260504220516 25 180 6.4 11.3 0.00 0.79 0.79 55 1003.7
20260504215516 25 180 6.4 9.7 0.00 0.79 0.79 54 1003.7
20260504214536 25 180 4.8 12.9 0.00 0.79 0.79 58 1003.7
20260504213516 24 225 4.8 14.5 0.00 0.79 0.79 63 1003.8
20260504212539 23 180 3.2 9.7 0.00 0.79 0.79 65 1003.8
20260504211516 23 180 3.2 9.7 0.00 0.79 0.79 67 1004.0
20260504210516 22 180 3.2 11.3 0.00 0.79 0.79 68 1004.2
20260504205516 22 225 4.8 11.3 0.00 0.79 0.79 67 1004.2
20260504204516 22 158 6.4 12.9 0.00 0.79 0.79 68 1004.4
20260504203516 21 113 4.8 16.1 0.03 0.79 0.79 72 1004.5
20260504202516 20 135 4.8 11.3 0.03 0.79 0.79 77 1004.4
20260504201516 19 158 6.4 12.9 0.08 0.79 0.79 80 1004.5
20260504200516 18 338 3.2 12.9 0.28 0.79 0.79 85 1004.8
20260504195516 18 270 3.2 8.0 0.66 0.79 0.79 85 1004.4
20260504194515 17 158 8.0 14.5 0.79 0.79 0.79 87 1004.6
20260504193516 17 180 4.8 12.9 0.76 0.76 0.76 87 1004.9
20260504192516 16 68 3.2 4.8 0.76 0.76 0.76 87 1004.8
20260504191516 17 68 3.2 6.4 0.71 0.71 0.71 86 1005.6
20260504190516 17 68 1.6 4.8 0.51 0.51 0.51 83 1006.6
20260504185636 19 0 3.2 6.4 0.13 0.13 0.13 76 1006.2
20260504184515 21 338 4.8 8.0 0.00 0.00 0.00 65 1006.2
20260504183515 22 113 1.6 4.8 0.00 0.00 0.00 59 1006.4
20260504182516 22 135 3.2 6.4 0.00 0.00 0.00 57 1006.5
20260504181515 22 135 3.2 12.9 0.00 0.00 0.00 58 1006.4
20260504180515 21 135 6.4 16.1 0.00 0.00 0.00 60 1005.9
20260504175518 21 158 3.2 14.5 0.00 0.00 0.00 62 1006.0
20260504174518 20 135 4.8 9.7 0.00 0.00 0.00 63 1006.2
20260504173517 20 158 4.8 11.3 0.00 0.00 0.00 63 1006.4
20260504172518 20 158 6.4 14.5 0.00 0.00 0.00 63 1006.3
20260504171518 19 135 6.4 14.5 0.00 0.00 0.00 64 1006.2
20260504170518 19 135 4.8 11.3 0.00 0.00 0.00 64 1006.9
20260504150517 20 180 4.8 8.0 0.00 0.00 0.00 60 1008.9
20260504140517 18 180 6.4 12.9 0.00 0.00 0.00 65 1008.5
20260504130517 17 135 4.8 9.7 0.00 0.00 0.00 73 1009.3
20260504110517 12 0.0 0.0 0.00 0.00 0.00 86 1009.5